TimeEDT,TemperatureF,Dew PointF,Humidity,Sea Level PressureIn,VisibilityMPH,Wind Direction,Wind SpeedMPH,Gust SpeedMPH,PrecipitationIn,Events,Conditions,WindDirDegrees,DateUTC
12:54 AM,28.0,15.1,58,30.04,10.0,Calm,Calm,-,N/A,,Clear,0,2013-03-23 04:54:00
1:54 AM,27.0,16.0,63,30.04,10.0,Calm,Calm,-,N/A,,Clear,0,2013-03-23 05:54:00
2:54 AM,26.1,15.1,63,30.03,10.0,Calm,Calm,-,N/A,,Partly Cloudy,0,2013-03-23 06:54:00
3:54 AM,25.0,16.0,69,30.03,10.0,Calm,Calm,-,N/A,,Clear,0,2013-03-23 07:54:00
4:54 AM,25.0,17.1,72,30.03,10.0,Calm,Calm,-,N/A,,Overcast,0,2013-03-23 08:54:00
5:54 AM,24.1,19.0,81,30.03,10.0,Calm,Calm,-,N/A,,Overcast,0,2013-03-23 09:54:00
6:54 AM,24.1,18.0,77,30.04,10.0,Calm,Calm,-,N/A,,Scattered Clouds,0,2013-03-23 10:54:00
7:54 AM,25.0,19.0,78,30.05,10.0,Calm,Calm,-,N/A,,Mostly Cloudy,0,2013-03-23 11:54:00
8:54 AM,26.6,19.4,74,30.06,10.0,Calm,Calm,-,N/A,,Overcast,0,2013-03-23 12:54:00
9:54 AM,32.0,21.0,64,30.07,10.0,Calm,Calm,-,N/A,,Mostly Cloudy,0,2013-03-23 13:54:00
10:54 AM,37.0,21.0,52,30.07,10.0,Calm,Calm,-,N/A,,Overcast,0,2013-03-23 14:54:00
11:54 AM,43.0,17.1,35,30.06,10.0,Calm,Calm,-,N/A,,Mostly Cloudy,0,2013-03-23 15:54:00
12:54 PM,45.0,15.1,30,30.04,10.0,NE,4.6,-,N/A,,Mostly Cloudy,50,2013-03-23 16:54:00
1:54 PM,48.0,17.1,29,30.03,10.0,Calm,Calm,-,N/A,,Scattered Clouds,0,2013-03-23 17:54:00
2:54 PM,48.9,15.1,26,30.01,10.0,SSE,8.1,-,N/A,,Scattered Clouds,150,2013-03-23 18:54:00
3:54 PM,51.1,17.1,26,29.99,10.0,South,6.9,-,N/A,,Scattered Clouds,180,2013-03-23 19:54:00
4:54 PM,53.1,17.1,24,29.98,10.0,SW,4.6,-,N/A,,Partly Cloudy,230,2013-03-23 20:54:00
5:54 PM,53.1,17.1,24,29.96,10.0,North,6.9,-,N/A,,Clear,360,2013-03-23 21:54:00
6:54 PM,50.0,16.0,26,29.96,10.0,NNW,5.8,-,N/A,,Clear,340,2013-03-23 22:54:00
7:54 PM,48.0,16.0,28,29.97,10.0,North,5.8,-,N/A,,Clear,10,2013-03-23 23:54:00
8:54 PM,46.0,17.1,31,29.98,10.0,NE,3.5,-,N/A,,Clear,40,2013-03-24 00:54:00
9:54 PM,44.1,17.1,34,29.96,10.0,Calm,Calm,-,N/A,,Partly Cloudy,0,2013-03-24 01:54:00
10:54 PM,39.9,21.0,47,29.95,10.0,Calm,Calm,-,N/A,,Partly Cloudy,0,2013-03-24 02:54:00
11:54 PM,36.0,23.0,59,29.91,10.0,Calm,Calm,-,N/A,,Clear,0,2013-03-24 03:54:00